[[{"header":{"parameterUnit":"m.s-1","parameterCategory":2,"la1":30.2992,"la2":30.254,"lo1":-89.0895,"lo2":-89.0443,"dy":0.0025,"dx":0.0025,"nx":19,"ny":19,"refTime":"2026-04-27T21:00:00:Z","depth":"0","parameterNumber":2,"parameterNumberName":"U-component_of_CURRENTS"},"data":[0,0,0,-0.1539,-0.1539,-0.1509,-0.1509,-0.1467,-0.1467,0,0,0,0,0,0,0,0,0,0,0,-0.1545,-0.1545,-0.1539,-0.1539,-0.1509,-0.1509,-0.1467,-0.1467,0,0,0,0,0,0,0,0,0,0,0,-0.1545,-0.1545,-0.1544,-0.1539,-0.1509,-0.1509,-0.1467,-0.1489,0,0,0,0,0,0,0,0,0,0,-0.1518,-0.1526,-0.1545,-0.1544,-0.1539,-0.1509,-0.1509,-0.149,-0.1488,-0.1481,0,-0.1476,0,-0.1474,-0.1464,-0.1464,0,0,0,-0.1533,-0.1528,-0.1521,-0.1544,-0.1538,-0.1509,-0.1521,-0.1489,-0.1486,-0.1478,-0.1475,-0.1474,-0.1474,-0.1464,-0.1464,-0.1451,-0.1451,0,0,-0.1535,-0.1537,-0.1523,-0.152,-0.153,-0.1522,-0.152,-0.1487,-0.1483,-0.1475,-0.1473,-0.1473,-0.1464,-0.1464,-0.145,-0.1451,0,0,0,-0.1543,-0.1538,-0.1533,-0.1521,-0.1519,-0.1521,-0.1519,-0.1484,-0.1483,-0.1472,-0.1473,-0.1464,-0.1463,-0.145,-0.145,-0.1473,0,0,0,-0.1544,-0.1544,-0.1534,-0.1534,-0.1519,-0.1502,-0.1517,-0.1485,-0.1481,-0.1473,-0.1464,-0.1463,-0.145,-0.145,-0.1472,-0.1476,0,0,0,-0.1546,-0.1544,-0.1541,-0.1535,-0.1525,-0.1502,-0.1499,-0.1484,-0.1482,-0.1464,-0.1463,-0.145,-0.145,-0.1472,-0.1475,-0.1377,0,0,0,-0.155,-0.1521,-0.1541,-0.1513,-0.1525,-0.1498,-0.1499,-0.1466,-0.1447,-0.1463,-0.145,-0.145,-0.1471,-0.1474,-0.1378,-0.1172,-0.115,0,0,-0.151,-0.1516,-0.1501,-0.1518,-0.1511,-0.1502,-0.1499,-0.1471,-0.1455,-0.1459,-0.1459,-0.1473,-0.1475,-0.1377,-0.1189,-0.1166,0,0,0,-0.1486,-0.1492,-0.1484,-0.1495,-0.1479,-0.1503,-0.1481,-0.147,-0.1464,-0.1448,-0.1472,-0.1473,-0.1409,-0.1288,-0.1271,-0.119,-0.1452,-0.1452,-0.1452,-0.1438,-0.1463,-0.1462,-0.15,-0.1496,-0.15,-0.1498,-0.1491,-0.1469,-0.1469,-0.1491,-0.1436,-0.131,-0.1294,-0.1216,-0.1494,-0.1495,-0.1495,-0.1495,-0.1415,-0.1421,-0.1483,-0.1493,-0.1532,-0.1537,-0.1541,-0.1529,-0.1486,-0.1505,-0.1441,-0.132,-0.1275,-0.1199,-0.1496,-0.1496,-0.1496,-0.1496,-0.1495,-0.1401,-0.1406,-0.1434,-0.146,-0.1505,-0.1532,-0.1487,-0.1511,-0.149,-0.1466,-0.1239,-0.1236,-0.1161,-0.1395,-0.1394,-0.1394,-0.1394,-0.1393,-0.1393,-0.1345,-0.1381,-0.1348,-0.1405,-0.1393,-0.1399,-0.1418,-0.136,-0.1258,-0.123,-0.1227,-0.1118,-0.1403,-0.1397,-0.1387,-0.1388,-0.1389,-0.1389,-0.139,-0.1259,-0.1258,-0.1205,-0.1178,-0.1156,-0.1072,-0.1151,-0.1007,-0.0957,-0.0859,-0.0829,-0.1073,-0.1022,-0.1034,-0.1017,-0.0909,-0.0909,-0.0909,-0.0909,-0.1151,-0.1167,-0.103,-0.0942,-0.0881,-0.0897,-0.0662,-0.0617,-0.0576,-0.0529,-0.0593,-0.0589,-0.0612,-0.054,-0.0563,-0.0539,-0.0312,-0.0311,-0.0311,-0.1022,-0.1015,-0.0868,-0.0822,-0.0748,-0.0658,-0.0417,-0.0218,-0.0197,-0.029,-0.0526,-0.0551,-0.0559,-0.0601,-0.0505,-0.0544,-0.0511,0,0]},{"header":{"parameterUnit":"m.s-1","parameterCategory":2,"la1":30.2992,"la2":30.254,"lo1":-89.0895,"lo2":-89.0443,"dy":0.0025,"dx":0.0025,"nx":19,"ny":19,"refTime":"2026-04-27T21:00:00:Z","depth":"0","parameterNumber":3,"parameterNumberName":"V-component_of_CURRENTS"},"data":[0,0,0,0.0004,0.0005,0.011,0.0111,0.0268,0.0269,0,0,0,0,0,0,0,0,0,0,0,-0.0043,-0.0042,0.0003,0.0006,0.011,0.0111,0.0268,0.0269,0,0,0,0,0,0,0,0,0,0,0,-0.0043,-0.0042,-0.0042,0.0006,0.011,0.0111,0.0268,0.0186,0,0,0,0,0,0,0,0,0,0,0.0082,0.0037,-0.0043,-0.0042,0.0006,0.011,0.0111,0.0182,0.0191,0.0223,0,0.0224,0,0.025,0.0279,0.028,0,0,0,0.0019,0.0029,0.0052,-0.0042,0.0007,0.011,0.0067,0.0187,0.0197,0.0235,0.0226,0.0232,0.0253,0.028,0.0281,0.0382,0.0382,0,0,0.0013,-0.0011,0.0044,0.0057,0.0015,0.0063,0.007,0.0193,0.02,0.0227,0.0236,0.0255,0.0281,0.0282,0.0382,0.0382,0,0,0,-0.0013,-0.0015,0.0005,0.0051,0.0068,0.0066,0.0074,0.0194,0.0198,0.0238,0.0257,0.0282,0.0284,0.0382,0.0382,0.0324,0,0,0,-0.0015,-0.003,0.0001,-0.0009,0.0065,0.0131,0.0072,0.019,0.0205,0.0256,0.0282,0.0285,0.0382,0.0382,0.0326,0.0307,0,0,0,-0.0044,-0.0032,-0.0028,-0.0011,0.0029,0.013,0.0142,0.0194,0.0216,0.028,0.0286,0.0382,0.0382,0.0327,0.031,0.0313,0,0,0,-0.0059,-0.0056,-0.0029,-0.0009,0.0028,0.0086,0.0141,0.0198,0.0247,0.0283,0.0382,0.0382,0.0327,0.0311,0.0314,0.0362,0.036,0,0,-0.0064,-0.0057,-0.0042,-0.0016,0.0022,0.0074,0.0124,0.0207,0.026,0.0346,0.0349,0.0325,0.031,0.0313,0.0362,0.0361,0,0,0,-0.0048,-0.0053,-0.0032,-0.0003,0.0052,0.0095,0.017,0.0204,0.0275,0.0288,0.0342,0.0335,0.0338,0.037,0.0369,0.0484,0.0382,0.0382,0.0382,-0.0113,-0.0071,-0.0058,-0.0012,0.0033,0.0113,0.0152,0.0213,0.0262,0.0277,0.0299,0.0279,0.0311,0.0311,0.0429,0.031,0.0309,0.0309,0.0309,-0.0168,-0.0165,-0.0104,-0.0084,-0.0012,0.0033,0.0138,0.0173,0.0236,0.0266,0.0272,0.0322,0.0306,0.0433,0.0306,0.0306,0.0307,0.0307,0.0307,-0.0249,-0.0234,-0.0224,-0.0184,-0.0123,-0.0023,0.0051,0.012,0.0187,0.0199,0.0265,0.0267,0.037,0.0207,0.0207,0.0207,0.0207,0.0207,0.0207,-0.0333,-0.0314,-0.032,-0.0279,-0.0233,-0.0151,-0.0007,0.0062,0.0162,0.0219,0.022,0.0388,0.0248,0.0243,0.0205,0.0206,0.0206,0.0206,0.0206,-0.0385,-0.04,-0.0402,-0.0381,-0.029,-0.0191,-0.0069,0.0122,0.0171,0.0234,0.0402,0.0243,0.0274,0.0277,0.0274,0.0246,0.0246,0.0246,0.0246,-0.0421,-0.0432,-0.0423,-0.0391,-0.0331,-0.0194,0.006,0.0309,0.0464,0.0525,0.0483,0.0525,0.0518,0.0567,0.0563,0.0567,0.0614,0.0615,0.0615,-0.0427,-0.0427,-0.0412,-0.0399,-0.0327,-0.0169,0.0175,0.0631,0.0732,0.0641,0.0633,0.0617,0.0689,0.0669,0.0753,0.0738,0.0747,0,0]}],[{"header":{"parameterUnit":"m.s-1","parameterCategory":2,"la1":30.2992,"la2":30.254,"lo1":-89.0895,"lo2":-89.0443,"dy":0.0025,"dx":0.0025,"nx":19,"ny":19,"refTime":"2026-04-27T21:00:00:Z","depth":"2","parameterNumber":2,"parameterNumberName":"U-component_of_CURRENTS"},"data":[0,0,0,-0.1471,-0.1471,-0.1437,-0.1436,-0.1375,-0.1375,0,0,0,0,0,0,0,0,0,0,0,-0.1477,-0.1477,-0.1471,-0.1471,-0.1437,-0.1436,-0.1375,-0.1375,0,0,0,0,0,0,0,0,0,0,0,-0.1477,-0.1477,-0.1477,-0.1471,-0.1437,-0.1436,-0.1375,-0.1404,0,0,0,0,0,0,0,0,0,0,-0.1439,-0.1451,-0.1477,-0.1477,-0.1471,-0.1437,-0.1436,-0.1405,-0.1402,-0.1388,0,-0.1383,0,-0.1382,-0.1371,-0.1371,0,0,0,-0.1464,-0.1454,-0.1445,-0.1477,-0.147,-0.1437,-0.145,-0.1404,-0.14,-0.1384,-0.1382,-0.138,-0.1381,-0.1371,-0.137,-0.1343,-0.1344,0,0,-0.1466,-0.147,-0.1448,-0.1443,-0.1461,-0.1451,-0.1449,-0.1402,-0.1397,-0.1382,-0.1379,-0.138,-0.137,-0.137,-0.1343,-0.1343,0,0,0,-0.1476,-0.1471,-0.1463,-0.1445,-0.1443,-0.145,-0.1448,-0.1399,-0.1396,-0.1378,-0.138,-0.137,-0.1369,-0.1343,-0.1343,-0.1373,0,0,0,-0.1477,-0.1478,-0.1464,-0.1466,-0.1444,-0.1424,-0.1446,-0.1399,-0.1394,-0.138,-0.137,-0.1369,-0.1343,-0.1343,-0.1372,-0.1374,0,0,0,-0.1479,-0.1478,-0.1474,-0.1467,-0.1456,-0.1425,-0.1419,-0.1398,-0.1396,-0.1371,-0.1368,-0.1343,-0.1343,-0.1371,-0.1373,-0.1274,0,0,0,-0.1485,-0.1455,-0.1474,-0.1445,-0.1456,-0.1424,-0.1419,-0.1383,-0.1358,-0.137,-0.1343,-0.1343,-0.1371,-0.1372,-0.1275,-0.1066,-0.1044,0,0,-0.1446,-0.1451,-0.1434,-0.145,-0.1435,-0.1428,-0.1421,-0.1384,-0.1364,-0.1356,-0.1355,-0.1372,-0.1373,-0.1274,-0.1084,-0.1062,0,0,0,-0.142,-0.1422,-0.1413,-0.1419,-0.1401,-0.1422,-0.1396,-0.1384,-0.1372,-0.1354,-0.137,-0.1369,-0.1305,-0.1182,-0.1165,-0.1345,-0.1345,-0.1345,-0.1345,-0.137,-0.139,-0.1381,-0.1412,-0.1408,-0.1413,-0.141,-0.1401,-0.1376,-0.1378,-0.1393,-0.1339,-0.1212,-0.1195,-0.1397,-0.1397,-0.1397,-0.1397,-0.1397,-0.133,-0.1328,-0.1385,-0.1386,-0.1428,-0.1433,-0.1444,-0.1436,-0.1393,-0.1412,-0.1347,-0.1221,-0.1177,-0.14,-0.1399,-0.1399,-0.1399,-0.1399,-0.1398,-0.13,-0.1303,-0.1324,-0.1342,-0.1387,-0.1424,-0.1383,-0.1415,-0.1398,-0.1375,-0.1143,-0.114,-0.131,-0.1304,-0.1303,-0.1303,-0.1302,-0.1302,-0.1302,-0.1239,-0.1267,-0.1231,-0.1279,-0.1273,-0.1285,-0.1314,-0.126,-0.1162,-0.1137,-0.1133,-0.1305,-0.1308,-0.1302,-0.1296,-0.1297,-0.1298,-0.1298,-0.1299,-0.1153,-0.115,-0.1092,-0.1067,-0.1046,-0.0968,-0.1049,-0.0911,-0.0861,-0.0763,-0.0967,-0.0977,-0.0922,-0.0934,-0.0917,-0.0811,-0.0811,-0.0811,-0.0811,-0.1056,-0.1065,-0.093,-0.0844,-0.0784,-0.0796,-0.0569,-0.0522,-0.0568,-0.0587,-0.0598,-0.0608,-0.063,-0.0562,-0.0582,-0.056,-0.0361,-0.036,-0.036,-0.0941,-0.0928,-0.0787,-0.0728,-0.0656,-0.0565,-0.033,-0.0162,-0.0187,-0.0353,-0.0631,-0.0759,-0.0802,-0.0827,-0.0747,-0.077,-0.0744,0,0]},{"header":{"parameterUnit":"m.s-1","parameterCategory":2,"la1":30.2992,"la2":30.254,"lo1":-89.0895,"lo2":-89.0443,"dy":0.0025,"dx":0.0025,"nx":19,"ny":19,"refTime":"2026-04-27T21:00:00:Z","depth":"2","parameterNumber":3,"parameterNumberName":"V-component_of_CURRENTS"},"data":[0,0,0,-0.007,-0.0068,0.0038,0.0039,0.0188,0.0189,0,0,0,0,0,0,0,0,0,0,0,-0.0116,-0.0115,-0.007,-0.0068,0.0038,0.0039,0.0187,0.0189,0,0,0,0,0,0,0,0,0,0,0,-0.0116,-0.0116,-0.0115,-0.0068,0.0038,0.0039,0.0187,0.0107,0,0,0,0,0,0,0,0,0,0,0.0003,-0.0041,-0.0116,-0.0115,-0.0067,0.0038,0.0039,0.0103,0.0112,0.0139,0,0.0141,0,0.0167,0.0198,0.0198,0,0,0,-0.0055,-0.0049,-0.0025,-0.0115,-0.0066,0.0038,-0.0006,0.0108,0.0118,0.0151,0.0143,0.0149,0.0169,0.0199,0.0199,0.0291,0.0291,0,0,-0.0061,-0.0085,-0.0033,-0.002,-0.0057,-0.001,-0.0003,0.0114,0.012,0.0144,0.0153,0.0172,0.02,0.0201,0.0291,0.0291,0,0,0,-0.0087,-0.0089,-0.0068,-0.0026,-0.0008,-0.0007,0.0001,0.0115,0.012,0.0154,0.0174,0.02,0.0202,0.0291,0.0291,0.0238,0,0,0,-0.0089,-0.0105,-0.0071,-0.0083,-0.0011,0.0054,-0.0001,0.0112,0.0126,0.0173,0.02,0.0203,0.0291,0.0291,0.024,0.0222,0,0,0,-0.0117,-0.0107,-0.0102,-0.0085,-0.0044,0.0053,0.0066,0.0115,0.0137,0.0198,0.0204,0.0291,0.0291,0.0241,0.0224,0.0227,0,0,0,-0.0134,-0.0131,-0.0103,-0.0084,-0.0046,0.0011,0.0065,0.012,0.0167,0.0201,0.0291,0.0291,0.0241,0.0225,0.0228,0.0271,0.0269,0,0,-0.0139,-0.0132,-0.0118,-0.009,-0.0056,-0.0001,0.0046,0.0127,0.0178,0.0256,0.0259,0.0239,0.0224,0.0227,0.027,0.0268,0,0,0,-0.0124,-0.0131,-0.0111,-0.0083,-0.0028,0.0015,0.0089,0.0123,0.0193,0.0204,0.0254,0.0247,0.025,0.0279,0.0277,0.0291,0.0291,0.0291,0.0291,-0.0192,-0.0151,-0.0142,-0.0097,-0.0052,0.003,0.007,0.0131,0.0178,0.0194,0.0214,0.0195,0.0224,0.0224,0.0224,0.0224,0.0224,0.0224,0.0224,-0.0254,-0.0255,-0.0194,-0.0176,-0.0102,-0.0056,0.0054,0.0091,0.0155,0.0184,0.019,0.0234,0.0219,0.022,0.022,0.0221,0.0221,0.0222,0.0222,-0.0343,-0.0331,-0.0319,-0.028,-0.0218,-0.0114,-0.0037,0.0037,0.0108,0.012,0.0181,0.0182,0.0166,0.0128,0.0128,0.0128,0.0128,0.0128,0.0127,-0.0436,-0.0417,-0.0422,-0.038,-0.0332,-0.0246,-0.0096,-0.0025,0.0079,0.0137,0.0138,0.0163,0.0166,0.0162,0.0126,0.0126,0.0127,0.0127,0.0127,-0.05,-0.0509,-0.0511,-0.0488,-0.0392,-0.03,-0.0169,0.0022,0.0078,0.0141,0.0159,0.0159,0.0187,0.019,0.0187,0.016,0.016,0.016,0.016,-0.0541,-0.055,-0.0539,-0.0505,-0.0442,-0.031,-0.0101,0.0087,0.0186,0.0185,0.0184,0.0204,0.0203,0.0234,0.0235,0.0234,0.0219,0.0219,0.0219,-0.0551,-0.055,-0.0536,-0.0519,-0.0445,-0.0297,-0.0044,0.0162,0.0169,0.0219,0.0168,0.0169,0.0198,0.0197,0.0244,0.0246,0.0245,0,0]}],[{"header":{"parameterUnit":"m.s-1","parameterCategory":2,"la1":30.2992,"la2":30.254,"lo1":-89.0895,"lo2":-89.0443,"dy":0.0025,"dx":0.0025,"nx":19,"ny":19,"refTime":"2026-04-27T21:00:00:Z","depth":"4","parameterNumber":2,"parameterNumberName":"U-component_of_CURRENTS"},"data":[0,0,0,0.0028,0.0027,-0.0055,-0.0056,-0.0179,-0.018,0,0,0,0,0,0,0,0,0,0,0,0.0029,0.0029,0.0028,0.0027,-0.0055,-0.0056,-0.0179,-0.018,0,0,0,0,0,0,0,0,0,0,0,0.0029,0.0029,0.0029,0.0027,-0.0055,-0.0056,-0.0179,-0.0125,0,0,0,0,0,0,0,0,0,0,-0.0048,-0.0039,0.0029,0.0029,0.0027,-0.0054,-0.0056,-0.0122,-0.0128,-0.0131,0,-0.0129,0,-0.0122,-0.0184,-0.0184,0,0,0,-0.0024,-0.0034,-0.0028,0.0029,0.0027,-0.0054,-0.0032,-0.0126,-0.0132,-0.0138,-0.0131,-0.0135,-0.0124,-0.0184,-0.0184,-0.0281,-0.0282,0,0,-0.0019,-0.0019,-0.0023,-0.0031,0.0025,-0.0029,-0.0034,-0.013,-0.0145,-0.0131,-0.0137,-0.0126,-0.0184,-0.0185,-0.0281,-0.0282,0,0,0,0.0028,-0.0016,-0.001,-0.0027,-0.002,-0.003,-0.0036,-0.0143,-0.0131,-0.0138,-0.0128,-0.0185,-0.0186,-0.028,-0.0281,-0.0354,0,0,0,0.0029,0.0016,-0.0007,-0.0013,-0.0018,-0.008,-0.0046,-0.0126,-0.0135,-0.0127,-0.0185,-0.0186,-0.0279,-0.0281,-0.035,-0.0361,0,0,0,0.0029,0.0016,0.0018,-0.0012,-0.0018,-0.0078,-0.0077,-0.0129,-0.0126,-0.0184,-0.0186,-0.0279,-0.028,-0.0347,-0.0357,-0.0401,0,0,0,0.0013,0.0014,0.0018,0.0017,-0.0016,-0.0074,-0.0077,-0.017,-0.0232,-0.0185,-0.028,-0.0281,-0.0346,-0.0354,-0.0398,-0.0258,0,0,0,0.0009,0.0012,0.0015,0.0019,0.0015,-0.0068,-0.0144,-0.0236,-0.0247,-0.0256,-0.0259,-0.0351,-0.0356,-0.04,-0.0345,0,0,0,0,0.0011,0.0016,0.0017,0.0011,-0.0029,-0.0105,-0.0218,-0.0255,-0.034,-0.0273,-0.0361,-0.0361,-0.0387,-0.0297,-0.0288,-0.0288,-0.0288,-0.0288,-0.0287,0.0004,0.0005,-0.0035,-0.0061,-0.0093,-0.0173,-0.0264,-0.034,-0.0369,-0.0431,-0.0429,-0.052,-0.0429,-0.0448,-0.0449,-0.0449,-0.0449,-0.0449,-0.045,-0.0042,-0.0074,-0.0106,-0.0158,-0.0202,-0.0306,-0.037,-0.0421,-0.052,-0.0501,-0.0523,-0.039,-0.0457,-0.0456,-0.0455,-0.0454,-0.0453,-0.0453,-0.0452,-0.007,-0.0095,-0.018,-0.0271,-0.0364,-0.0424,-0.0492,-0.053,-0.0596,-0.0624,-0.0528,-0.0566,-0.055,-0.0647,-0.0647,-0.0647,-0.0648,-0.0648,-0.0648,-0.0082,-0.0163,-0.0235,-0.0357,-0.0439,-0.0531,-0.0578,-0.0615,-0.0622,-0.0582,-0.0647,-0.0585,-0.0579,-0.0561,-0.0652,-0.0652,-0.0651,-0.0651,-0.065,-0.0064,-0.0112,-0.0191,-0.0273,-0.0438,-0.0509,-0.0577,-0.0567,-0.0576,-0.0545,-0.056,-0.0563,-0.0519,-0.0514,-0.0491,-0.0566,-0.0564,-0.0563,0,-0.0025,-0.0057,-0.0125,-0.0209,-0.0316,-0.0449,-0.0442,-0.0471,-0.0485,-0.0484,-0.0571,-0.0591,-0.0591,-0.054,-0.0533,-0.0506,0,0,0,-0.0,-0.0018,-0.0033,-0.0138,-0.0259,-0.0362,-0.0448,-0.0427,-0.0509,-0.043,-0.0526,-0.0535,-0.0539,-0.0665,-0.0604,-0.0596,-0.0563,0,0]},{"header":{"parameterUnit":"m.s-1","parameterCategory":2,"la1":30.2992,"la2":30.254,"lo1":-89.0895,"lo2":-89.0443,"dy":0.0025,"dx":0.0025,"nx":19,"ny":19,"refTime":"2026-04-27T21:00:00:Z","depth":"4","parameterNumber":3,"parameterNumberName":"V-component_of_CURRENTS"},"data":[0,0,0,-0.0502,-0.0505,-0.0573,-0.0573,-0.0484,-0.0483,0,0,0,0,0,0,0,0,0,0,0,-0.0464,-0.0465,-0.0502,-0.0505,-0.0573,-0.0572,-0.0484,-0.0483,0,0,0,0,0,0,0,0,0,0,0,-0.0463,-0.0464,-0.0465,-0.0505,-0.0573,-0.0572,-0.0485,-0.0469,0,0,0,0,0,0,0,0,0,0,-0.0422,-0.0441,-0.0464,-0.0465,-0.0506,-0.0573,-0.0572,-0.047,-0.047,-0.0413,0,-0.0442,0,-0.0478,-0.0476,-0.0476,0,0,0,-0.0473,-0.0441,-0.045,-0.0466,-0.0507,-0.0573,-0.0533,-0.0471,-0.0471,-0.0413,-0.0442,-0.044,-0.0476,-0.0476,-0.0475,-0.0363,-0.0362,0,0,-0.047,-0.0475,-0.0451,-0.0451,-0.0545,-0.0531,-0.0536,-0.0473,-0.0482,-0.0442,-0.0439,-0.0475,-0.0475,-0.0474,-0.0363,-0.0362,0,0,0,-0.048,-0.0473,-0.0487,-0.0453,-0.0489,-0.0534,-0.0539,-0.0485,-0.0488,-0.0439,-0.0474,-0.0474,-0.0473,-0.0363,-0.0363,-0.036,0,0,0,-0.0476,-0.0481,-0.0485,-0.0489,-0.0493,-0.0518,-0.0552,-0.0492,-0.0487,-0.0474,-0.0474,-0.0472,-0.0364,-0.0363,-0.0361,-0.0408,0,0,0,-0.0457,-0.048,-0.0492,-0.0489,-0.0535,-0.0521,-0.0521,-0.0492,-0.0509,-0.0476,-0.0472,-0.0364,-0.0363,-0.0363,-0.0408,-0.0305,0,0,0,-0.0451,-0.0472,-0.0493,-0.0532,-0.0534,-0.0562,-0.0522,-0.0496,-0.0465,-0.0474,-0.0364,-0.0363,-0.0363,-0.0408,-0.0307,-0.0296,0,0,0,-0.0464,-0.0474,-0.0495,-0.0516,-0.0578,-0.0549,-0.0555,-0.0474,-0.0428,-0.0368,-0.0366,-0.0361,-0.0408,-0.0305,-0.0233,0,0,0,0,-0.0491,-0.0507,-0.0531,-0.0579,-0.0601,-0.0604,-0.0542,-0.048,-0.0382,-0.0416,-0.034,-0.037,-0.0304,-0.0302,-0.0358,-0.0358,-0.0358,-0.0358,-0.0358,-0.0502,-0.0528,-0.0566,-0.0599,-0.0613,-0.0602,-0.0557,-0.0457,-0.0396,-0.0325,-0.035,-0.0257,-0.0254,-0.0304,-0.0304,-0.0304,-0.0304,-0.0304,-0.0304,-0.0517,-0.0541,-0.0566,-0.0599,-0.0618,-0.0595,-0.0513,-0.0449,-0.0334,-0.0323,-0.0255,-0.0282,-0.0303,-0.0303,-0.0303,-0.0303,-0.0303,-0.0303,-0.0304,-0.0539,-0.0546,-0.0563,-0.0591,-0.058,-0.0551,-0.0455,-0.0412,-0.0319,-0.0299,-0.0195,-0.0235,-0.0251,-0.0205,-0.0205,-0.0204,-0.0204,-0.0204,-0.0204,-0.0543,-0.056,-0.0576,-0.0577,-0.0561,-0.0487,-0.0413,-0.0328,-0.0262,-0.0215,-0.0265,-0.0223,-0.0226,-0.0243,-0.02,-0.02,-0.0201,-0.0201,-0.0202,-0.0562,-0.0583,-0.0593,-0.0593,-0.0535,-0.0471,-0.0381,-0.0221,-0.0135,-0.0067,-0.0131,-0.0136,-0.0126,-0.0131,-0.0145,-0.0071,-0.0071,-0.0071,0,-0.0581,-0.059,-0.0611,-0.0601,-0.0536,-0.0467,-0.031,-0.0204,-0.0131,-0.0147,-0.0159,-0.024,-0.0241,-0.0242,-0.0245,-0.0267,0,0,0,-0.0589,-0.0593,-0.0609,-0.0611,-0.0544,-0.0372,-0.026,-0.0208,-0.0149,-0.0041,-0.0062,-0.0064,-0.0156,-0.0188,-0.0184,-0.0188,-0.0214,0,0]}]]